Location: Rehoboth Beach
(38.7438°N, 75.1341°W)
Time: 08:12:31
(UTC-04:00)

Cosmos 1452 Rocket - Visible Passes

Search period start: 28 August 2016 00:00
Search period end: 07 September 2016 00:00
Orbit: 767 x 776 km, 74.1° (Epoch: 27 August)

Date Brightness Start Highest point End Pass type
(mag) Time Alt. Az. Time Alt. Az. Time Alt. Az.
28 Aug 6.1 01:22:24 10° N 01:23:33 16° N 01:23:33 16° N visible
29 Aug 6.2 00:46:47 10° N 00:47:50 15° N 00:47:50 15° N visible
30 Aug 6.3 00:11:29 10° NNE 00:12:08 12° NNE 00:12:08 12° NNE visible
30 Aug 6.4 01:52:25 10° NNW 01:52:27 10° NNW 01:52:27 10° NNW visible
31 Aug 6.3 01:16:19 10° NNW 01:16:47 13° NNW 01:16:47 13° NNW visible
01 Sep 6.3 00:40:25 10° N 00:41:09 14° N 00:41:09 14° N visible
02 Sep 6.2 00:04:46 10° N 00:05:33 14° N 00:05:33 14° N visible
02 Sep 6.2 23:29:26 10° NNE 23:29:57 12° NNE 23:29:57 12° NNE visible
04 Sep 6.4 00:34:21 10° NNW 00:34:42 12° NNW 00:34:42 12° NNW visible
04 Sep 6.2 23:58:26 10° N 23:59:10 14° N 23:59:10 14° N visible
05 Sep 6.1 23:22:44 10° N 23:23:39 14° N 23:23:39 14° N visible
06 Sep 6.0 22:47:22 10° NNE 22:48:09 13° NNE 22:48:09 13° NNE visible
